Location: Sevilla
(37.3933°N, 5.9839°W)
Time: 22:59:40
(UTC+02:00)

Vanguard 3 - All Passes

Search period start: 25 June 2024 00:00
Search period end: 05 July 2024 00:00
Orbit: 509 x 3231 km, 33.3° (Epoch: 25 June)

Date Brightness Start Highest point End Pass type
(mag) Time Alt. Az. Time Alt. Az. Time Alt. Az.
25 Jun - 07:41:13 10° SSW 07:53:38 26° SSE 08:02:30 10° E daylight
25 Jun - 09:53:51 10° SW 10:07:13 48° SSE 10:14:59 10° E daylight
25 Jun - 12:09:29 10° WSW 12:19:44 65° S 12:25:26 10° E daylight
25 Jun - 14:24:39 10° W 14:31:00 42° SSW 14:35:08 10° SE daylight
26 Jun - 06:24:02 10° S 06:33:49 17° SE 06:41:51 10° ESE visible
26 Jun - 08:33:25 10° SW 08:47:54 39° SSE 08:57:05 10° E daylight
26 Jun - 10:48:21 10° WSW 11:01:09 61° S 11:08:15 10° E daylight
26 Jun - 13:04:21 10° W 13:13:14 61° S 13:18:21 10° ESE daylight
26 Jun - 15:19:25 10° W 15:23:49 23° SSW 15:27:09 10° SSE daylight
27 Jun - 07:13:58 10° SSW 07:28:08 30° SSE 07:38:17 10° E daylight
27 Jun - 09:27:10 10° SW 09:42:04 53° SSE 09:50:45 10° E daylight
27 Jun - 11:43:21 10° W 11:54:57 68° S 12:01:19 10° E daylight
27 Jun - 13:59:09 10° W 14:06:27 43° SSW 14:10:58 10° SE daylight
28 Jun - 05:56:19 10° S 06:08:08 20° SE 06:17:51 10° ESE visible
28 Jun - 08:06:28 10° SW 08:22:27 44° SSE 08:32:43 10° E daylight
28 Jun - 10:21:52 10° WSW 10:36:07 65° S 10:44:01 10° E daylight
28 Jun - 12:38:25 10° W 12:48:32 62° SSW 12:54:12 10° ESE daylight
28 Jun - 14:54:08 10° W 14:59:13 23° SW 15:02:52 10° SSE daylight
29 Jun - 04:43:39 10° SSE 04:48:06 11° SE 04:52:19 10° SE visible
29 Jun - 06:46:51 10° SSW 07:02:26 33° SSE 07:13:50 10° E daylight
29 Jun - 09:00:24 10° WSW 09:16:42 58° SSE 09:26:22 10° E daylight
29 Jun - 11:17:02 10° W 11:30:02 70° S 11:37:06 10° E daylight
29 Jun - 13:33:25 10° W 13:41:46 44° SSW 13:46:47 10° SE daylight
30 Jun - 05:28:57 10° S 05:42:16 23° SE 05:53:26 10° E visible
30 Jun - 07:39:34 10° SW 07:56:46 48° SSE 08:08:10 10° E daylight
30 Jun - 09:55:15 10° WSW 10:10:53 69° S 10:19:41 10° E daylight
30 Jun - 12:12:17 10° W 12:23:41 63° SSW 12:30:01 10° ESE daylight
30 Jun - 14:28:37 10° W 14:34:29 24° SW 14:38:34 10° SSE daylight
01 Jul - 04:14:42 10° SSE 04:22:11 13° SE 04:29:16 10° ESE visible
01 Jul - 06:19:52 10° SSW 06:36:30 37° SSE 06:49:09 10° E visible
01 Jul - 08:33:38 10° WSW 08:51:08 62° SSE 09:01:51 10° E daylight
01 Jul - 10:50:33 10° W 11:04:55 72° S 11:12:49 10° E daylight
01 Jul - 13:07:27 10° W 13:16:58 45° SSW 13:22:31 10° SE daylight
02 Jul - 05:01:51 10° S 05:16:13 26° SE 05:28:40 10° E visible
02 Jul - 07:12:44 10° SW 07:30:53 52° SSE 07:43:27 10° E daylight
02 Jul - 09:28:34 10° WSW 09:45:27 72° S 09:55:13 10° E daylight
02 Jul - 11:45:56 10° W 11:58:41 64° SSW 12:05:43 10° ESE daylight
02 Jul - 14:02:52 10° W 14:09:38 25° SW 14:14:13 10° SSE daylight
03 Jul - 03:46:55 10° SSE 03:56:08 15° SE 04:05:01 10° ESE visible
03 Jul - 05:53:02 10° SSW 06:10:24 40° SSE 06:24:13 10° E visible
03 Jul - 08:06:52 10° WSW 08:25:21 65° SSE 08:37:11 10° E daylight
03 Jul - 10:23:57 10° W 10:39:38 73° S 10:48:24 10° ESE daylight
03 Jul - 12:41:15 10° W 12:51:59 46° SSW 12:58:11 10° SE daylight
04 Jul - 04:35:00 10° SSW 04:49:59 29° SE 05:03:36 10° E visible
04 Jul - 06:46:00 10° SW 07:04:48 55° SSE 07:18:33 10° E daylight
04 Jul - 09:01:50 10° WSW 09:19:50 74° S 09:30:37 10° E daylight
04 Jul - 11:19:25 10° W 11:33:30 64° SSW 11:41:19 10° ESE daylight
04 Jul - 13:36:52 10° W 13:44:39 26° SW 13:49:48 10° SSE daylight
